Regional Weather Roundup
Issued by NWS

Home | Current Version | Previous Version | Graphics & Text | Print | Product List | Glossary Off
Versions: 1 2 3 4 5 6 7 8 9 10 11 12 13 14 15 16 17 18 19 20 21 22 23 24 25 26 27 28 29 30 31 32 33 34 35 36 37 38 39 40 41 42 43 44 45 46 47 48 49 50

000
ASUS43 KFSD 300602
RWRSD

WEATHER ROUNDUP FOR SOUTH DAKOTA
NATIONAL WEATHER SERVICE SIOUX FALLS SD
100 AM CDT TUE JUN 30 2015

NOTE: "FAIR" INDICATES FEW OR NO CLOUDS BELOW 12,000 FEET WITH NO
SIGNIFICANT WEATHER AND/OR OBSTRUCTIONS TO VISIBILITY.


SDZ001>005-009-010-012>017-300700-
NORTHWEST AND NORTH CENTRAL SOUTH DAKOTA

CITY           SKY/WX    TMP DP  RH WIND       PRES   REMARKS
BUFFALO          N/A     73  59  61 NE6       29.91S
FAITH            N/A     71  61  70 S10       29.94F
MOBRIDGE       MOCLDY    73  65  75 E9        29.91R
$$

SDZ012>016-024>037-041>051-057-063-072>074-300700-
SOUTHWEST AND SOUTH CENTRAL SOUTH DAKOTA

CITY           SKY/WX    TMP DP  RH WIND       PRES   REMARKS
RAPID CTY ARPT PTCLDY    66  59  78 W6        30.02F
PIERRE         LGT RAIN  72  61  68 E3        29.91S
CUSTER         PTCLDY    58  53  84 W5        30.21F
ELLSWORTH AFB  PTCLDY    71  59  67 SW8       30.01F
PHILIP         CLEAR     75  62  64 W3        29.95S
PINE RIDGE     CLEAR     61  57  87 CALM      30.06F
WINNER         FAIR      73  55  53 S5        29.95F
$$

SDZ004>011-016>023-039-040-300700-
NORTHEAST SOUTH DAKOTA

CITY           SKY/WX    TMP DP  RH WIND       PRES   REMARKS
ABERDEEN       PTCLDY    66  62  87 E3        29.92S
WATERTOWN      MOCLDY    63  59  87 NE6       29.93F
BROOKINGS      PTCLDY    63  57  82 N5        29.95S
SISSETON         N/A     63  60  90 N5        29.91F
$$

SDZ017-020-022-023-036>040-048>070-300700-
SOUTHEAST SOUTH DAKOTA

CITY           SKY/WX    TMP DP  RH WIND       PRES   REMARKS
SIOUX FALLS    CLEAR     68  63  84 CALM      29.92S
HURON          PTCLDY    71  63  75 E6        29.91S
MITCHELL       PTCLDY    73  63  70 CALM      29.91F
YANKTON        MOCLDY    72  59  64 SW5       29.91S
$$

ABBREVIATIONS USED IN REMARKS
   TC - TEMPERATURE IN CELSIUS
  WCI - WIND CHILL INDEX
   HX - HEAT INDEX
  VSB - VISIBILITY




USA.gov is the U.S. government's official web portal to all federal, state and local government web resources and services.